Greeley, CO

12:17 AM MST on November 17, 2019 (GMT -0700)
Greeley-Weld County

Weather History for KGXY - October, 2019

Change the Weather History Date:

Monday, October 14, 2019

  Actual Average Record
Temperature  
Mean Temperature 51 °F -  
Max Temperature 75 °F - 84 °F (1968)
Min Temperature 27 °F - 5 °F (1969)
Degree Days  
Heating Degree Days 14    
Month to date heating degree days  
Cooling Degree Days 0    
Month to date cooling degree days  
Growing Degree Days 1 (Base 50)    
Moisture  
Dew Point 20 °F    
Average Humidity 39    
Maximum Humidity 78    
Minimum Humidity 9    
Precipitation  
Precipitation 0.00 in - 0.26 in (1970)
Sea Level Pressure  
Sea Level Pressure 29.93 in    
Wind  
Wind Speed 4 mph ()    
Max Wind Speed 9 mph    
Max Gust Speed -    
Visibility 10.0 miles    
Events      
T = Trace of Precipitation, MM = Missing Value Source: Averaged Metar Reports

Daily Weather History Graph

Daily Weather History Graph

Search for Another Location

Airport or City:

Astronomy

Oct. 14, 2019 Rise Set
Actual Time 7:08 AM MDT 6:20 PM MDT
Civil Twilight 6:40 AM MDT 6:47 PM MDT
Nautical Twilight 6:09 AM MDT 7:19 PM MDT
Astronomical Twilight 5:37 AM MDT 7:50 PM MDT
Moon 7:11 PM MDT (10/14) 7:42 AM MDT (10/14)
Length of Visible Light 12h 06m
Length of Day
11h 12m
Full, 99% of the Moon is Illuminated
Oct 14
Full
Oct 21
Last Quarter
Oct 27
New
Nov 4
First Quarter
Nov 12
Full

Hourly Weather History & Observations

Time (MDT) Temp. Windchill Dew Point Humidity Pressure Visibility Wind Dir Wind Speed Gust Speed Precip Events Conditions
12:56 AM 33.1 °F 25.5 °F 21.0 °F 61% 29.94 in 10.0 mi WNW 9.2 mph - N/A   Clear
1:56 AM 32.0 °F 26.4 °F 21.0 °F 64% 29.92 in 10.0 mi NW 5.8 mph - N/A   Clear
2:56 AM 37.9 °F 34.4 °F 19.0 °F 47% 29.89 in 10.0 mi West 4.6 mph - N/A   Clear
3:56 AM 30.0 °F 25.2 °F 21.0 °F 69% 29.92 in 10.0 mi Variable 4.6 mph - N/A   Clear
4:56 AM 28.9 °F 25.2 °F 23.0 °F 78% 29.93 in 10.0 mi Variable 3.5 mph - N/A   Clear
5:56 AM 28.0 °F 22.8 °F 21.9 °F 78% 29.95 in 10.0 mi NNE 4.6 mph - N/A   Clear
6:56 AM 27.0 °F - 21.0 °F 78% 29.98 in 10.0 mi Calm Calm - N/A   Clear
7:56 AM 32.0 °F - 24.1 °F 73% 29.98 in 10.0 mi Calm Calm - N/A   Clear
8:56 AM 41.0 °F 39.0 °F 26.1 °F 55% 29.99 in 10.0 mi West 3.5 mph - N/A   Clear
9:56 AM 51.1 °F - 25.0 °F 36% 29.97 in 10.0 mi Calm Calm - N/A   Clear
10:56 AM 61.0 °F - 21.9 °F 22% 29.94 in 10.0 mi Calm Calm - N/A   Clear
11:56 AM 68.0 °F - 18.0 °F 15% 29.90 in 10.0 mi East 4.6 mph - N/A   Clear
12:56 PM 73.0 °F - 17.1 °F 12% 29.88 in 10.0 mi SSW 5.8 mph - N/A   Clear
1:56 PM 73.9 °F - 15.1 °F 11% 29.86 in 10.0 mi Variable 5.8 mph - N/A   Clear
2:56 PM 75.0 °F - 12.9 °F 9% 29.82 in 10.0 mi Calm Calm - N/A   Clear
3:56 PM 73.9 °F - 12.9 °F 10% 29.85 in 10.0 mi Calm Calm - N/A   Clear
4:56 PM 73.9 °F - 15.1 °F 11% 29.84 in 10.0 mi North 8.1 mph - N/A   Clear
5:56 PM 70.0 °F - 16.0 °F 13% 29.87 in 10.0 mi Calm Calm - N/A   Clear
6:56 PM 62.1 °F - 19.9 °F 20% 29.92 in 10.0 mi Calm Calm - N/A   Clear
7:56 PM 54.0 °F - 19.9 °F 26% 29.96 in 10.0 mi North 6.9 mph - N/A   Clear
8:56 PM 51.1 °F - 21.9 °F 32% 29.98 in 10.0 mi WNW 9.2 mph - N/A   Clear
9:56 PM 46.9 °F - 24.1 °F 41% 29.99 in 10.0 mi NW 6.9 mph - N/A   Clear
10:56 PM 44.1 °F 41.5 °F 19.0 °F 37% 29.97 in 10.0 mi West 4.6 mph - N/A   Clear
11:56 PM 43.0 °F 38.8 °F 18.0 °F 37% 29.98 in 10.0 mi NNW 6.9 mph - N/A   Clear